Overview Statistics Trail Chart Weather Telemetry Raw packets
 

This is the latest recevied weather packets stored in our database for station/object W5DNT. If no packets are shown the sender has not sent any weather packets the latest 10 day(s).

<< 1 2 3 4 >>
Time Temp. Humidity Pressure Rain* Wind** Luminosity Snow
1788642953 36.11° C 41% 1009.8 hPa 0 mm - - -
1788642017 36.11° C 41% 1010 hPa 0 mm - - -
1788641115 36.11° C 46% 1010.1 hPa 0 mm - - -
1788640211 35.56° C 43% 1010.3 hPa 0 mm - - -
1788639310 35.56° C 43% 1010.6 hPa 0 mm - - -
1788638406 35° C 46% 1011.1 hPa 0 mm - - -
1788637502 35° C 46% 1011.3 hPa 0 mm - - -
1788636660 35° C 47% 1011.5 hPa 0 mm - - -
1788635756 34.44° C 46% 1011.8 hPa 0 mm - - -
1788634857 33.89° C 48% 1012 hPa 0 mm - - -
1788633954 33.89° C 48% 1012.3 hPa 0 mm - - -
1788633052 33.89° C 51% 1012.4 hPa 0 mm - - -
1788632150 33.89° C 48% 1012.6 hPa 0 mm - - -
1788631269 33.33° C 56% 1012.9 hPa 0 mm - - -
1788630345 33.33° C 51% 1013.2 hPa 0 mm - - -
1788629457 32.78° C 56% 1013.4 hPa 0 mm - - -
1788628551 32.22° C 55% 1013.6 hPa 0 mm - - -
1788627638 32.22° C 56% 1014 hPa 0 mm - - -
1788626734 31.67° C 60% 1013.9 hPa 0 mm - - -
1788625830 30.56° C 61% 1013.9 hPa 0 mm - - -
1788624927 30.56° C 63% 1014 hPa 0 mm - - -
1788624044 30° C 68% 1014 hPa 0 mm - - -
1788623121 29.44° C 69% 1013.9 hPa 0 mm - - -
1788622222 28.89° C 71% 1013.9 hPa 0 mm - - -
1788621314 28.33° C 75% 1014 hPa 0 mm - - -

* Rain latest hour (hover to see other rain measurements)
** Current wind speed in m/s (hover to see current wind gust speed)